Weather past 2 weeks in Willemstad, Curaçao

Now
86 °F

Scattered clouds.


Feels Like: 93 °F
Forecast: 79 / 85 °F
Wind: 13 mph from East

Location: Hato Airport - Curacao


UV Index: 10 (Very high)

Visibility: N/A


Pressure: 29.95 "Hg

Humidity: 66%

Dew point: 73 °F

Location of WillemstadLocation

Historic Weather in Willemstad

°F

Willemstad temperature yesterday

Maximum temperature yesterday: 86 °F (at 12:00 PM)
Minimum temperature yesterday: 79 °F (at 1:00 AM)
Average temperature yesterday: 82 °F

Past Weeks' High & Low Weather Summary

 TemperatureHumidityPressure
High88 °F (Apr 5, 1:00 PM)89% (Apr 3, 11:00 PM)30.07 "Hg (Apr 3, 11:00 PM)
Low77 °F (Apr 5, 4:00 AM)55% (Apr 13, 12:00 PM)29.80 "Hg (Apr 14, 5:00 PM)
Average82 °F76%29.92 "Hg
* Reported Apr 2 11:00 AM — Apr 17 11:00 AM, Willemstad, Weather by CustomWeather, © 2014

Note: Actual official high and low records may vary slightly from our data, if they occured in-between our weather recording intervals... More about our weather records

Advertising

Historic Weather Conditions — Data for Previous 24 hours

 ConditionsComfort  
Time TempWeatherWind HumidityBarometerVisibility
11:00 AM
Apr 17
86 °FScattered clouds.13 mph66%29.95 "HgN/A
10:00 AM84 °FScattered clouds.13 mph70%29.95 "HgN/A
9:00 AM84 °FScattered clouds.12 mph70%29.95 "HgN/A
8:00 AM81 °FPassing clouds.10 mph79%29.95 "HgN/A
7:00 AM79 °FPartly sunny.10 mph84%29.92 "HgN/A
6:00 AM79 °FPassing clouds.9 mph84%29.92 "HgN/A
5:00 AM77 °FPassing clouds.16 mph89%29.89 "HgN/A
4:00 AM77 °FPassing clouds.15 mph89%29.89 "HgN/A
3:00 AM79 °FPassing clouds.7 mph84%29.89 "HgN/A
2:00 AM79 °FPassing clouds.9 mph84%29.92 "HgN/A
1:00 AM79 °FPassing clouds.12 mph84%29.92 "HgN/A
12:00 AM79 °FPassing clouds.10 mph84%29.92 "HgN/A
11:00 PM
Apr 16
79 °FPassing clouds.10 mph84%29.92 "HgN/A
10:00 PM79 °FPassing clouds.9 mph84%29.92 "HgN/A
9:00 PM81 °FPassing clouds.9 mph79%29.89 "HgN/A
8:00 PM81 °FPassing clouds.9 mph79%29.89 "HgN/A
7:00 PM81 °FPassing clouds.10 mph79%29.86 "HgN/A
6:00 PM82 °FPassing clouds.13 mph74%29.83 "HgN/A
5:00 PM84 °FPassing clouds.15 mph70%29.83 "HgN/A
4:00 PM84 °FScattered clouds.14 mph66%29.86 "HgN/A
3:00 PM84 °FScattered clouds.15 mph70%29.86 "HgN/A
2:00 PM84 °FWarm.N/A70%29.89 "HgN/A
1:00 PM84 °FScattered clouds.15 mph70%29.92 "HgN/A
12:00 PM86 °FScattered clouds.14 mph66%29.95 "HgN/A
Weather by CustomWeather, © 2014

See weather overview